www.pogodaiklimat.ru

Погода и климат >> Архив погоды >> Россия >> Ростовская область >> Каменск-Шахтинский


ПОГОДА в Каменск-Шахтинском

  • Прогноз погоды в Каменск-Шахтинском
  • Монитор погоды в Каменск-Шахтинском

АРХИВ ПОГОДЫ в Каменск-Шахтинском

Время (UTC), дата Ветер
(напр.,м/с)
 
Видим.   Явления Облачность Т
(С)
Тd
(С)
f
(%)
Тe
(С)
Тes
(С)
Комфортность P
(гПа)
Po
(гПа)
Тmin
(С)
Tmax
(С)
R
(мм)
R24
(мм)
S
(см)
15 12.06 СВ 2 20 км 8/3 600 м
[Cu med, cong Ac trans]
+32.2 +5.0 18 +30 +31 жарко 1011.0 1004.5 +33.9
18 12.06 штиль 0 20 км 8/3 600 м
[Cb cap Ac lent]
+28.0 +7.7 28 +28 +28 жарко 1011.5 1004.9
21 12.06 штиль 0 20 км 3/0
[Ac lent]
+25.5 +4.9 27 +25 +25 комфорт 1011.2 1004.5
00 13.06 штиль 0 20 км 8/0
[Ac lent]
+18.8 +8.3 50 +19 +19 1011.6 1004.8
03 13.06 штиль 0 20 км 6/0
[Ac lent]
+20.6 +13.4 63 +23 +24 комфорт 1012.2 1005.5 +18.0
06 13.06 В 2 20 км 8/0
[Ac trans Ci fib]
+27.5 +9.8 33 +28 +36 жарко 1012.6 1006.0
09 13.06 В 2 20 км 8/0
[Ac trans Ci]
+34.4 +7.4 19 +33 +47 жарко 1012.9 1006.4
12 13.06 В 2 20 км 9/4 1000 м
[Cu med, cong Ac trans Ci fib]
+37.3 +4.1 13 +34 +39 очень
жарко
1011.7 1005.2
15 13.06 С 3
{12}
20 км 9/6 600 м
[Cb calv Ac trans Ci fib]
+30.3 +11.0 30 +30 +31 жарко 1013.1 1006.6 +37.3
18 13.06 СВ 1 20 км 9/8 1000 м
[Cb calv Ac trans]
+26.4 +12.5 42 +28 +28 жарко 1015.5 1008.8
21 13.06 В 3 20 км 5/0
[Ac trans]
+22.8 +12.1 51 +25 +25 комфорт 1017.5 1010.7
00 14.06 В 1 20 км 4/0
[Ac trans]
+19.0 +9.6 54 +21 +21 комфорт 1018.7 1011.8
03 14.06 В 3 20 км ясно +18.5 +5.9 44 +19 +20 1020.1 1013.2 +17.7
06 14.06 В 4
{10}
20 км ясно +22.9 +3.8 29 +23 +30 комфорт 1020.8 1014.0
09 14.06 В 5
{11}
20 км ясно +26.6 +0.9 19 +25 +34 комфорт 1020.1 1013.4
12 14.06 В 3 20 км ясно +28.4 0.0 16 +26 +37 жарко 1018.9 1012.2
15 14.06 СВ 1 20 км ясно +27.4 -1.8 15 +25 +28 комфорт 1017.7 1011.1 +29.3
18 14.06 штиль 0 20 км ясно +21.2 +3.1 30 +21 +21 комфорт 1017.9 1011.0
21 14.06 штиль 0 20 км ясно +13.9 +7.8 67 +14 +14 1018.0 1011.0
00 15.06 штиль 0 20 км ясно +10.2 +6.8 79 +10 +10 1017.0 1009.9
03 15.06 штиль 0 20 км ясно +13.4 +8.2 71 +13 +15 1016.9 1009.9 +10.1
06 15.06 штиль 0 20 км ясно +24.4 +6.9 33 +25 +39 комфорт 1016.2 1009.5
09 15.06 штиль 0 20 км ясно +29.7 +3.2 18 +28 +52 опасность
солнечного
удара
1014.8 1008.2
12 15.06 штиль 0 20 км ясно +32.4 +4.2 17 +30 +47 жарко 1012.7 1006.2
15 15.06 штиль 0 20 км ясно +32.5 +5.1 18 +30 +34 жарко 1011.4 1004.9 +33.1
18 15.06 штиль 0 20 км 1/0
[Ac trans]
+27.0 +8.4 31 +27 +27 жарко 1011.8 1005.2
21 15.06 ЮВ 3 20 км 4/0
[Ac trans]
+22.2 +12.9 56 +25 +25 комфорт 1011.9 1005.1
00 16.06 штиль 0 20 км 1/0
[Ac trans]
+17.9 +13.3 74 +18 +18 1011.3 1004.5
03 16.06 штиль 0 20 км ясно +19.7 +13.7 68 +21 +23 комфорт 1011.4 1004.6 +15.0
06 16.06 штиль 0 20 км 3/0
[Ac lent]
+26.2 +15.4 51 +29 +40 жарко 1010.9 1004.3
09 16.06 С 2 20 км 3/1 1000 м
[Cu med, cong Ac lent]
+31.9 +13.2 32 +33 +46 жарко 1009.8 1003.3
12 16.06 С 1 20 км 8/4 600 м
[Cu med, cong Ac lent Ci]
+34.1 +11.7 26 +34 +40 очень
жарко
1008.2 1001.7
15 16.06 СЗ 1 20 км 9/9 600 м
[Cb cap]
+31.8 +10.9 28 +32 +32 жарко 1007.0 1000.5 +34.4
18 16.06 В 1
{13}
20 км гроза, ливневой дождь 10/10 600 м
[Cb calv]
+19.2 +16.4 84 +22 +22 комфорт 1011.9 1005.1
21 16.06 С 1 20 км {гроза, ливн. осадки} 3/0
[Ac lent]
+17.6 +16.0 90 +19 +19 1011.4 1004.5
00 17.06 СЗ 1 20 км {гроза, ливн. осадки} ясно +17.1 +15.4 90 +18 +18 1011.8 1004.9
03 17.06 штиль 0 20 км ясно +16.9 +12.3 74 +17 +19 1013.2 1006.3 +16.4 2
06 17.06 В 2 20 км ясно +22.7 +12.7 53 +25 +36 комфорт 1014.1 1007.3
09 17.06 СВ 5 20 км 3/1 1000 м
[Cu hum Ac trans]
+26.6 +8.8 33 +27 +34 жарко 1014.3 1007.7
12 17.06 В 4
{11}
20 км 3/1 1000 м
[Cu hum Ac trans]
+28.5 +7.9 27 +28 +35 жарко 1013.4 1006.8
15 17.06 СВ 2 20 км 1/0
[Ac trans]
+27.3 +8.0 30 +27 +30 жарко 1013.2 1006.6 +28.9
18 17.06 штиль 0 20 км 1/0
[Ac trans]
+23.3 +9.7 42 +25 +25 комфорт 1013.7 1007.0
21 17.06 штиль 0 20 км 4/0
[Ac trans]
+18.0 +12.9 72 +18 +18 1014.5 1007.6
00 18.06 штиль 0 20 км 3/0
[Ac trans]
+16.1 +13.1 82 +16 +16 1014.5 1007.6
03 18.06 штиль 0 20 км 1/0
[Ac trans]
+18.1 +13.0 72 +18 +20 1014.9 1008.1 +15.0
06 18.06 штиль 0 20 км ясно +25.3 +13.0 46 +27 +42 жарко 1014.7 1008.0
09 18.06 СВ 2 20 км 3/3 1000 м
[Cu hum]
+29.2 +8.3 27 +29 +41 жарко 1013.8 1007.3
12 18.06 С 1 20 км 3/3 1000 м
[Cu hum]
+30.4 +8.9 26 +30 +40 жарко 1013.2 1006.6
15 18.06 СВ 1 20 км 3/0 1000 м
[Ac trans]
+29.9 +10.0 29 +30 +32 жарко 1012.1 1005.6 +30.9
18 18.06 штиль 0 20 км ясно +25.3 +11.6 42 +27 +27 жарко 1012.8 1006.1
21 18.06 штиль 0 20 км ясно +19.1 +12.7 66 +20 +20 1012.9 1006.1
00 19.06 штиль 0 20 км ясно +17.7 +14.1 79 +18 +18 1012.9 1006.1
03 19.06 штиль 0 20 км ясно +18.6 +14.3 76 +19 +21 1012.9 1006.1 +16.7
06 19.06 штиль 0 20 км ясно +27.1 +13.1 42 +29 +43 жарко 1012.6 1006.0
09 19.06 штиль 0 20 км 8/8 600 м
[Cb cap]
+31.7 +12.0 30 +32 +37 жарко 1012.1 1005.6
12 19.06 С 6-11
{11}
20 км гроза без осадков 9/9 600 м
[Cb cap]
+27.2 +14.3 45 +29 +30 жарко 1011.6 1005.0

 

Местоположение метеостанции Каменск-Шахтинский (Ростовская область, Россия): широта 48.30 долгота 40.30 высота над уровнем моря 58 м.

В архиве по умолчанию представлена погода в Каменск-Шахтинском за последнюю неделю. Архивные данные за месяц целиком и за предыдущие месяцы, начиная с января 2011 года, Вы можете получить, выбрав интересующий диапазон дат из раскрывающегося списка и нажав кнопку "Ввод!".


*Определитесь, кто Вы:
робот инопланетянин человек

Внимание! Время в таблицах - всемирное. Для получения местного времени необходимо прибавить поправку, которая равна 3 ч.

Смотрите также архив погоды в соседних городах и на ближайших метеорологических станциях:

Погода в Белой Калитве (Ростовская область, Россия) (39 км)
Погода в Шахтах (Ростовская область, Россия) (67 км)
Погода в Миллерово (Ростовская область, Россия) (70 км)
Погода в Аэропорту Платов (Ростовская область, Россия) (94 км)
Погода в Семикаракорске (Ростовская область, Россия) (95 км)
Погода в Константиновске (Ростовская область, Россия) (100 км)
Погода в Беловодске (Луганская область, Украина) (115 км)
Погода в Морозовске (Ростовская область, Россия) (116 км)
Погода в Ростове-на-Дону (Ростовская область, Россия) (120 км)
Погода в Чертково (Ростовская область, Россия) (121 км)

Пояснения к столбцам:

Ветер - указаны скорость ветра в м/с - средняя за 10 мин, порывы в срок и между сроками (в фигурных скобках) и направление, откуда дует ветер: С - северный, СВ - северо-восточный, В - восточный, ЮВ - юго-восточный, Ю - южный, ЮЗ - юго-западный, З - западный, СЗ - северо-западный.
Видимость - горизонтальная дальность видимости в метрах или километрах. При видимости от 1 до 10 км при отсутствии осадков обычно наблюдается дымка, при ухудшении видимости до 1 км и менее - туман. В сухую погоду видимость может ухудшаться дымом, пылью или мглою.
Явления - указаны атмосферные явления, наблюдавшиеся в срок или в последний час перед сроком; фигурными скобками обозначены явления, наблюдавшиеся между сроками (за 1-3 часа до срока); квадратными скобками обозначены град или гололедные отложения с указанием их диаметра в мм.
Облачность - указаны через наклонную черту общая и нижняя облачность в баллах и высота нижней границы облаков в метрах; квадратными скобками обозначены формы облаков: Ci - перистые, Cs - перисто-слоистые, Cc - перисто-кучевые, Ac - высококучевые, As - высокослоистые, Sc - слоисто-кучевые, Ns - слоисто-дождевые, Cu - кучевые, Cb - кучево-дождевые. Подробнее классификацию облаков см. в Атласе облаков (PDF).
T - Температура воздуха - температура, измеренная на высоте 2 м над землей.
Td - Температура точки росы - температура, при понижении до которой содержащийся в воздухе водяной пар достигнет насыщения.
f - Относительная влажность воздуха - влажноcть воздуха, измеренная на высоте 2 м над землей.
Te - Эффективная температура - температура, которую ощущает одетый по сезону человек в тени. Характеристика душности погоды. При расчете учитывается влияние влажности воздуха и скорости ветра на теплоощущения человека.
Tes - Эффективная температура на солнце - температура, которую ощущает человек, с поправкой на солнечный нагрев. Характеристика знойности погоды. Зависит от высоты солнца над горизонтом, облачности и скорости ветра. Ночью, в пасмурную погоду, а также при ветре 12 м/с и более поправка равна нулю.
P - Атмосферное давление - приведенное к уровню моря атмосферное давление.
Po - Атмосферное давление - измеренное на уровне метеостанции атмосферное давление.
Tmin - Минимальная температура - минимум температуры воздуха на высоте 2 м над землей.
Tmax - Максимальная температура - максимум температуры воздуха на высоте 2 м над землей.
R - Количество осадков - Количество выпавших осадков за период времени, мм. При наведении курсора мыши на число - период времени, за который выпало указанное количество осадков.
R24 - Количество осадков - Количество выпавших осадков за 24 часа, мм.
S - Снежный покров - Высота снежного покрова, см. При наведении курсора мыши на число - состояние снежного покрова и степень покрытия местности в баллах.